Location: Caltech
(34.1382°N, 118.1253°W)
Time: 14:32:04
(UTC-07:00)

Iridium 68 - Visible Passes

Search period start: 24 April 2014 00:00
Search period end: 04 May 2014 00:00
Orbit: 776 x 779 km, 86.4° (Epoch: 24 April)

Date Brightness Start Highest point End Pass type
(mag) Time Alt. Az. Time Alt. Az. Time Alt. Az.
24 Apr 6.2 21:31:58 10° N 21:37:09 72° W 21:39:07 38° SSW visible
25 Apr 6.1 20:58:30 10° N 21:03:38 58° E 21:06:14 28° SSE visible
25 Apr 8.7 22:41:36 10° NW 22:43:44 13° W 22:45:52 10° WSW visible
26 Apr 6.9 20:25:28 10° NNE 20:30:00 30° E 20:33:22 16° SE visible
26 Apr 8.0 22:06:22 10° NNW 22:10:31 25° W 22:13:53 13° SW visible
27 Apr 6.9 21:32:13 10° NNW 21:37:11 47° W 21:41:03 16° SSW visible
28 Apr 6.0 20:58:31 10° N 21:03:45 87° E 21:08:16 14° S visible
29 Apr 6.4 20:25:12 10° NNE 20:30:11 44° E 20:35:08 10° SSE visible
29 Apr 8.6 22:07:15 10° NW 22:10:27 17° W 22:13:38 10° WSW visible
30 Apr 7.7 21:32:37 10° NNW 21:37:11 32° W 21:41:44 10° SW visible
01 May 6.5 20:58:39 10° N 21:03:48 62° W 21:08:55 10° SSW visible
02 May 6.0 20:25:07 10° N 20:30:18 67° E 20:35:28 10° S visible
02 May 9.0 22:09:10 10° WNW 22:10:19 11° WNW 22:11:27 10° W visible
03 May 8.4 21:33:14 10° NW 21:37:07 22° W 21:40:59 10° SW visible
